Year,Month,Day,Hour,Minute,Value (Times are PST for temperature in C)
2008,05,04,00,00,5.20
2008,05,04,00,01,5.10
2008,05,04,00,02,5.10
2008,05,04,00,03,5.10
2008,05,04,00,04,5.20
2008,05,04,00,05,5.20
2008,05,04,00,06,5.20
2008,05,04,00,07,5.20
2008,05,04,00,08,5.30
2008,05,04,00,09,5.30
2008,05,04,00,10,5.30
2008,05,04,00,11,5.30
2008,05,04,00,12,5.30
2008,05,04,00,13,5.30
2008,05,04,00,14,5.30
2008,05,04,00,15,5.20
2008,05,04,00,16,5.20
2008,05,04,00,17,5.20
2008,05,04,00,18,5.20
2008,05,04,00,19,5.20
2008,05,04,00,20,5.20
2008,05,04,00,21,5.20
2008,05,04,00,22,5.20
2008,05,04,00,23,5.20
2008,05,04,00,24,5.20
2008,05,04,00,25,5.20
2008,05,04,00,26,5.20
2008,05,04,00,27,5.10
2008,05,04,00,28,5.10
2008,05,04,00,29,5.10
2008,05,04,00,30,5.10
2008,05,04,00,31,5.10
2008,05,04,00,32,5.10
2008,05,04,00,33,5.10
2008,05,04,00,34,5.10
2008,05,04,00,35,5.10
2008,05,04,00,36,5.10
2008,05,04,00,37,5.10
2008,05,04,00,38,5.10
2008,05,04,00,39,5.10
2008,05,04,00,40,5.10
2008,05,04,00,41,5.10
2008,05,04,00,42,5.10
2008,05,04,00,43,5.10
2008,05,04,00,44,5.10
2008,05,04,00,45,5.10
2008,05,04,00,46,5.10
2008,05,04,00,47,5.00
2008,05,04,00,48,4.90
2008,05,04,00,49,4.90
2008,05,04,00,50,4.90
2008,05,04,00,51,4.90
2008,05,04,00,52,4.90
2008,05,04,00,53,5.10
2008,05,04,00,54,5.10
2008,05,04,00,55,5.00
2008,05,04,00,56,5.00
2008,05,04,00,57,5.00
2008,05,04,00,58,5.00
2008,05,04,00,59,4.90
2008,05,04,01,00,4.90
2008,05,04,01,01,4.90
2008,05,04,01,02,4.90
2008,05,04,01,03,4.90
2008,05,04,01,04,4.90
2008,05,04,01,05,4.90
2008,05,04,01,06,4.90
2008,05,04,01,07,4.90
2008,05,04,01,08,4.90
2008,05,04,01,09,4.90
2008,05,04,01,10,4.90
2008,05,04,01,11,4.90
2008,05,04,01,12,4.90
2008,05,04,01,13,4.90
2008,05,04,01,14,4.90
2008,05,04,01,15,4.80
2008,05,04,01,16,4.80
2008,05,04,01,17,4.80
2008,05,04,01,18,4.80
2008,05,04,01,19,4.80
2008,05,04,01,20,4.80
2008,05,04,01,21,4.80
2008,05,04,01,22,4.80
2008,05,04,01,23,4.80
2008,05,04,01,24,4.80
2008,05,04,01,25,4.80
2008,05,04,01,26,4.80
2008,05,04,01,27,4.80
2008,05,04,01,28,4.80
2008,05,04,01,29,4.80
2008,05,04,01,30,4.80
2008,05,04,01,31,4.70
2008,05,04,01,32,4.70
2008,05,04,01,33,4.70
2008,05,04,01,34,4.70
2008,05,04,01,35,4.70
2008,05,04,01,36,4.70
2008,05,04,01,37,4.70
2008,05,04,01,38,4.70
2008,05,04,01,39,4.70
2008,05,04,01,40,4.70
2008,05,04,01,41,4.70
2008,05,04,01,42,4.70
2008,05,04,01,43,4.70
2008,05,04,01,44,4.80
2008,05,04,01,45,4.80
2008,05,04,01,46,4.80
2008,05,04,01,47,4.80
2008,05,04,01,48,4.80
2008,05,04,01,49,4.80
2008,05,04,01,50,4.80
2008,05,04,01,51,4.80
2008,05,04,01,52,4.80
2008,05,04,01,53,4.80
2008,05,04,01,54,4.80
2008,05,04,01,55,4.70
2008,05,04,01,56,4.70
2008,05,04,01,57,4.70
2008,05,04,01,58,4.70
2008,05,04,01,59,4.70
2008,05,04,02,00,4.70
2008,05,04,02,01,4.60
2008,05,04,02,02,4.60
2008,05,04,02,03,4.60
2008,05,04,02,04,4.60
2008,05,04,02,05,4.70
2008,05,04,02,06,4.70
2008,05,04,02,07,4.70
2008,05,04,02,08,4.70
2008,05,04,02,09,4.70
2008,05,04,02,10,4.70
2008,05,04,02,11,4.60
2008,05,04,02,12,4.60
2008,05,04,02,13,4.60
2008,05,04,02,14,4.60
2008,05,04,02,15,4.60
2008,05,04,02,16,4.60
2008,05,04,02,17,4.60
2008,05,04,02,18,4.60
2008,05,04,02,19,4.60
2008,05,04,02,20,4.60
2008,05,04,02,21,4.60
2008,05,04,02,22,4.60
2008,05,04,02,23,4.60
2008,05,04,02,24,4.60
2008,05,04,02,25,4.60
2008,05,04,02,26,4.60
2008,05,04,02,27,4.60
2008,05,04,02,28,4.50
2008,05,04,02,29,4.50
2008,05,04,02,30,4.50
2008,05,04,02,31,4.50
2008,05,04,02,32,4.50
2008,05,04,02,33,4.50
2008,05,04,02,34,4.50
2008,05,04,02,35,4.50
2008,05,04,02,36,4.50
2008,05,04,02,37,4.50
2008,05,04,02,38,4.50
2008,05,04,02,39,4.60
2008,05,04,02,40,4.60
2008,05,04,02,41,4.60
2008,05,04,02,42,4.60
2008,05,04,02,43,4.60
2008,05,04,02,44,4.60
2008,05,04,02,45,4.60
2008,05,04,02,46,4.60
2008,05,04,02,47,4.60
2008,05,04,02,48,4.60
2008,05,04,02,49,4.50
2008,05,04,02,50,4.50
2008,05,04,02,51,4.50
2008,05,04,02,52,4.50
2008,05,04,02,53,4.50
2008,05,04,02,54,4.50
2008,05,04,02,55,4.50
2008,05,04,02,56,4.50
2008,05,04,02,57,4.50
2008,05,04,02,58,4.40
2008,05,04,02,59,4.40
2008,05,04,03,00,4.40
2008,05,04,03,01,4.40
2008,05,04,03,02,4.40
2008,05,04,03,03,4.30
2008,05,04,03,04,4.30
2008,05,04,03,05,4.30
2008,05,04,03,06,4.30
2008,05,04,03,07,4.30
2008,05,04,03,08,4.30
2008,05,04,03,09,4.30
2008,05,04,03,10,4.40
2008,05,04,03,11,4.40
2008,05,04,03,12,4.40
2008,05,04,03,13,4.30
2008,05,04,03,14,4.30
2008,05,04,03,15,4.30
2008,05,04,03,16,4.30
2008,05,04,03,17,4.30
2008,05,04,03,18,4.30
2008,05,04,03,19,4.30
2008,05,04,03,20,4.30
2008,05,04,03,21,4.30
2008,05,04,03,22,4.40
2008,05,04,03,23,4.40
2008,05,04,03,24,4.40
2008,05,04,03,25,4.40
2008,05,04,03,26,4.40
2008,05,04,03,27,4.40
2008,05,04,03,28,4.30
2008,05,04,03,29,4.30
2008,05,04,03,30,4.30
2008,05,04,03,31,4.30
2008,05,04,03,32,4.30
2008,05,04,03,33,4.30
2008,05,04,03,34,4.30
2008,05,04,03,35,4.30
2008,05,04,03,36,4.30
2008,05,04,03,37,4.20
2008,05,04,03,38,4.20
2008,05,04,03,39,4.20
2008,05,04,03,40,4.20
2008,05,04,03,41,4.20
2008,05,04,03,42,4.20
2008,05,04,03,43,4.20
2008,05,04,03,44,4.20
2008,05,04,03,45,4.20
2008,05,04,03,46,4.20
2008,05,04,03,47,4.20
2008,05,04,03,48,4.20
2008,05,04,03,49,4.20
2008,05,04,03,50,4.20
2008,05,04,03,51,4.20
2008,05,04,03,52,4.20
2008,05,04,03,53,4.20
2008,05,04,03,54,4.20
2008,05,04,03,55,4.20
2008,05,04,03,56,4.20
2008,05,04,03,57,4.30
2008,05,04,03,58,4.30
2008,05,04,03,59,4.20
2008,05,04,04,00,4.20
2008,05,04,04,01,4.20
2008,05,04,04,02,4.20
2008,05,04,04,03,4.20
2008,05,04,04,04,4.20
2008,05,04,04,05,4.20
2008,05,04,04,06,4.20
2008,05,04,04,07,4.20
2008,05,04,04,08,4.20
2008,05,04,04,09,4.20
2008,05,04,04,10,4.10
2008,05,04,04,11,4.10
2008,05,04,04,12,4.10
2008,05,04,04,13,4.10
2008,05,04,04,14,4.10
2008,05,04,04,15,4.10
2008,05,04,04,16,4.10
2008,05,04,04,17,4.10
2008,05,04,04,18,4.10
2008,05,04,04,19,4.10
2008,05,04,04,20,4.10
2008,05,04,04,21,4.00
2008,05,04,04,22,4.00
2008,05,04,04,23,4.00
2008,05,04,04,24,4.00
2008,05,04,04,25,3.90
2008,05,04,04,26,3.90
2008,05,04,04,27,3.90
2008,05,04,04,28,3.90
2008,05,04,04,29,3.90
2008,05,04,04,30,3.80
2008,05,04,04,31,3.80
2008,05,04,04,32,3.80
2008,05,04,04,33,3.80
2008,05,04,04,34,3.80
2008,05,04,04,35,3.80
2008,05,04,04,36,3.80
2008,05,04,04,37,3.80
2008,05,04,04,38,3.80
2008,05,04,04,39,3.80
2008,05,04,04,40,3.80
2008,05,04,04,41,3.80
2008,05,04,04,42,3.80
2008,05,04,04,43,3.80
2008,05,04,04,44,3.80
2008,05,04,04,45,3.80
2008,05,04,04,46,3.80
2008,05,04,04,47,3.80
2008,05,04,04,48,3.80
2008,05,04,04,49,3.80
2008,05,04,04,50,3.80
2008,05,04,04,51,3.80
2008,05,04,04,52,3.80
2008,05,04,04,53,3.80
2008,05,04,04,54,3.80
2008,05,04,04,55,3.70
2008,05,04,04,56,3.70
2008,05,04,04,57,3.70
2008,05,04,04,58,3.70
2008,05,04,04,59,3.60
2008,05,04,05,00,3.60
2008,05,04,05,01,3.60
2008,05,04,05,02,3.60
2008,05,04,05,03,3.60
2008,05,04,05,04,3.60
2008,05,04,05,05,3.60
2008,05,04,05,06,3.60
2008,05,04,05,07,3.50
2008,05,04,05,08,3.50
2008,05,04,05,09,3.50
2008,05,04,05,10,3.50
2008,05,04,05,11,3.50
2008,05,04,05,12,3.50
2008,05,04,05,13,3.50
2008,05,04,05,14,3.50
2008,05,04,05,15,3.40
2008,05,04,05,16,3.40
2008,05,04,05,17,3.40
2008,05,04,05,18,3.40
2008,05,04,05,19,3.40
2008,05,04,05,20,3.40
2008,05,04,05,21,3.40
2008,05,04,05,22,3.40
2008,05,04,05,23,3.40
2008,05,04,05,24,3.40
2008,05,04,05,25,3.40
2008,05,04,05,26,3.40
2008,05,04,05,27,3.40
2008,05,04,05,28,3.40
2008,05,04,05,29,3.40
2008,05,04,05,30,3.40
2008,05,04,05,31,3.40
2008,05,04,05,32,3.30
2008,05,04,05,33,3.30
2008,05,04,05,34,3.30
2008,05,04,05,35,3.30
2008,05,04,05,36,3.30
2008,05,04,05,37,3.30
2008,05,04,05,38,3.30
2008,05,04,05,39,3.30
2008,05,04,05,40,3.30
2008,05,04,05,41,3.30
2008,05,04,05,42,3.30
2008,05,04,05,43,3.30
2008,05,04,05,44,3.30
2008,05,04,05,45,3.30
2008,05,04,05,46,3.30
2008,05,04,05,47,3.20
2008,05,04,05,48,3.20
2008,05,04,05,49,3.20
2008,05,04,05,50,3.20
2008,05,04,05,51,3.20
2008,05,04,05,52,3.20
2008,05,04,05,53,3.20
2008,05,04,05,54,3.20
2008,05,04,05,55,3.20
2008,05,04,05,56,3.20
2008,05,04,05,57,3.30
2008,05,04,05,58,3.30
2008,05,04,05,59,3.30
2008,05,04,06,00,3.30
2008,05,04,06,01,3.30
2008,05,04,06,02,3.30
2008,05,04,06,03,3.20
2008,05,04,06,04,3.20
2008,05,04,06,05,3.20
2008,05,04,06,06,3.30
2008,05,04,06,07,3.30
2008,05,04,06,08,3.30
2008,05,04,06,09,3.30
2008,05,04,06,10,3.30
2008,05,04,06,11,3.30
2008,05,04,06,12,3.30
2008,05,04,06,13,3.30
2008,05,04,06,14,3.30
2008,05,04,06,15,3.30
2008,05,04,06,16,3.30
2008,05,04,06,17,3.30
2008,05,04,06,18,3.30
2008,05,04,06,19,3.30
2008,05,04,06,20,3.40
2008,05,04,06,21,3.40
2008,05,04,06,22,3.40
2008,05,04,06,23,3.50
2008,05,04,06,24,3.50
2008,05,04,06,25,3.60
2008,05,04,06,26,3.70
2008,05,04,06,27,3.70
2008,05,04,06,28,3.80
2008,05,04,06,29,3.80
2008,05,04,06,30,3.80
2008,05,04,06,31,3.80
2008,05,04,06,32,3.80
2008,05,04,06,33,3.90
2008,05,04,06,34,4.00
2008,05,04,06,35,4.00
2008,05,04,06,36,4.10
2008,05,04,06,37,4.20
2008,05,04,06,38,4.20
2008,05,04,06,39,4.20
2008,05,04,06,40,4.20
2008,05,04,06,41,4.20
2008,05,04,06,42,4.20
2008,05,04,06,43,4.20
2008,05,04,06,44,4.20
2008,05,04,06,45,4.20
2008,05,04,06,46,4.30
2008,05,04,06,47,4.30
2008,05,04,06,48,4.40
2008,05,04,06,49,4.50
2008,05,04,06,50,4.50
2008,05,04,06,51,4.60
2008,05,04,06,52,4.60
2008,05,04,06,53,4.80
2008,05,04,06,54,4.90
2008,05,04,06,55,4.90
2008,05,04,06,56,5.00
2008,05,04,06,57,5.10
2008,05,04,06,58,5.10
2008,05,04,06,59,5.10
2008,05,04,07,00,5.10
2008,05,04,07,01,5.20
2008,05,04,07,02,5.30
2008,05,04,07,03,5.30
2008,05,04,07,04,5.40
2008,05,04,07,05,5.40
2008,05,04,07,06,5.40
2008,05,04,07,07,5.50
2008,05,04,07,08,5.50
2008,05,04,07,09,5.50
2008,05,04,07,10,5.60
2008,05,04,07,11,5.60
2008,05,04,07,12,5.60
2008,05,04,07,13,5.60
2008,05,04,07,14,5.60
2008,05,04,07,15,5.70
2008,05,04,07,16,5.70
2008,05,04,07,17,5.70
2008,05,04,07,18,5.70
2008,05,04,07,19,5.70
2008,05,04,07,20,5.70
2008,05,04,07,21,5.70
2008,05,04,07,22,5.80
2008,05,04,07,23,5.80
2008,05,04,07,24,5.90
2008,05,04,07,25,5.90
2008,05,04,07,26,6.00
2008,05,04,07,27,6.10
2008,05,04,07,28,6.20
2008,05,04,07,29,6.20
2008,05,04,07,30,6.30
2008,05,04,07,31,6.30
2008,05,04,07,32,6.40
2008,05,04,07,33,6.50
2008,05,04,07,34,6.70
2008,05,04,07,35,6.80
2008,05,04,07,36,6.90
2008,05,04,07,37,7.00
2008,05,04,07,38,7.00
2008,05,04,07,39,7.10
2008,05,04,07,40,7.10
2008,05,04,07,41,7.10
2008,05,04,07,42,7.20
2008,05,04,07,43,7.20
2008,05,04,07,44,7.30
2008,05,04,07,45,7.40
2008,05,04,07,46,7.40
2008,05,04,07,47,7.50
2008,05,04,07,48,7.50
2008,05,04,07,49,7.50
2008,05,04,07,50,7.50
2008,05,04,07,51,7.60
2008,05,04,07,52,7.60
2008,05,04,07,53,7.70
2008,05,04,07,54,7.80
2008,05,04,07,55,7.90
2008,05,04,07,56,8.00
2008,05,04,07,57,8.00
2008,05,04,07,58,8.10
2008,05,04,07,59,8.20
2008,05,04,08,00,8.30
2008,05,04,08,01,8.30
2008,05,04,08,02,8.30
2008,05,04,08,03,8.40
2008,05,04,08,04,8.40
2008,05,04,08,05,8.40
2008,05,04,08,06,8.30
2008,05,04,08,07,8.20
2008,05,04,08,08,8.20
2008,05,04,08,09,8.30
2008,05,04,08,10,8.40
2008,05,04,08,11,8.40
2008,05,04,08,12,8.50
2008,05,04,08,13,8.60
2008,05,04,08,14,8.80
2008,05,04,08,15,8.90
2008,05,04,08,16,9.00
2008,05,04,08,17,9.10
2008,05,04,08,18,9.20
2008,05,04,08,19,9.40
2008,05,04,08,20,9.50
2008,05,04,08,21,9.60
2008,05,04,08,22,9.70
2008,05,04,08,23,9.70
2008,05,04,08,24,9.80
2008,05,04,08,25,9.90
2008,05,04,08,26,9.90
2008,05,04,08,27,9.80
2008,05,04,08,28,9.80
2008,05,04,08,29,9.80
2008,05,04,08,30,9.70
2008,05,04,08,31,9.70
2008,05,04,08,32,9.70
2008,05,04,08,33,9.70
2008,05,04,08,34,9.70
2008,05,04,08,35,9.80
2008,05,04,08,36,9.80
2008,05,04,08,37,9.90
2008,05,04,08,38,9.90
2008,05,04,08,39,9.90
2008,05,04,08,40,9.90
2008,05,04,08,41,10.00
2008,05,04,08,42,10.10
2008,05,04,08,43,10.10
2008,05,04,08,44,10.20
2008,05,04,08,45,10.30
2008,05,04,08,46,10.30
2008,05,04,08,47,10.40
2008,05,04,08,48,10.50
2008,05,04,08,49,10.60
2008,05,04,08,50,10.70
2008,05,04,08,51,10.80
2008,05,04,08,52,10.90
2008,05,04,08,53,11.00
2008,05,04,08,54,11.10
2008,05,04,08,55,11.10
2008,05,04,08,56,11.10
2008,05,04,08,57,11.10
2008,05,04,08,58,11.10
2008,05,04,08,59,11.20
2008,05,04,09,00,11.20
2008,05,04,09,01,11.20
2008,05,04,09,02,11.20
2008,05,04,09,03,11.30
2008,05,04,09,04,11.30
2008,05,04,09,05,11.30
2008,05,04,09,06,11.40
2008,05,04,09,07,11.40
2008,05,04,09,08,11.40
2008,05,04,09,09,11.40
2008,05,04,09,10,11.40
2008,05,04,09,11,11.50
2008,05,04,09,12,11.60
2008,05,04,09,13,11.60
2008,05,04,09,14,11.70
2008,05,04,09,15,11.70
2008,05,04,09,16,11.80
2008,05,04,09,17,11.80
2008,05,04,09,18,11.80
2008,05,04,09,19,11.80
2008,05,04,09,20,11.80
2008,05,04,09,21,11.90
2008,05,04,09,22,11.90
2008,05,04,09,23,11.90
2008,05,04,09,24,12.00
2008,05,04,09,25,12.00
2008,05,04,09,26,12.00
2008,05,04,09,27,12.00
2008,05,04,09,28,12.00
2008,05,04,09,29,11.90
2008,05,04,09,30,11.90
2008,05,04,09,31,11.90
2008,05,04,09,32,11.90
2008,05,04,09,33,11.90
2008,05,04,09,34,12.00
2008,05,04,09,35,12.10
2008,05,04,09,36,12.20
2008,05,04,09,37,12.20
2008,05,04,09,38,12.30
2008,05,04,09,39,12.30
2008,05,04,09,40,12.40
2008,05,04,09,41,12.40
2008,05,04,09,42,12.40
2008,05,04,09,43,12.40
2008,05,04,09,44,12.30
2008,05,04,09,45,12.30
2008,05,04,09,46,12.30
2008,05,04,09,47,12.30
2008,05,04,09,48,12.40
2008,05,04,09,49,12.40
2008,05,04,09,50,12.50
2008,05,04,09,51,12.50
2008,05,04,09,52,12.50
2008,05,04,09,53,12.50
2008,05,04,09,54,12.50
2008,05,04,09,55,12.60
2008,05,04,09,56,12.60
2008,05,04,09,57,12.50
2008,05,04,09,58,12.50
2008,05,04,09,59,12.50
2008,05,04,10,00,12.50
2008,05,04,10,01,12.50
2008,05,04,10,02,12.50
2008,05,04,10,03,12.40
2008,05,04,10,04,12.40
2008,05,04,10,05,12.50
2008,05,04,10,06,12.50
2008,05,04,10,07,12.50
2008,05,04,10,08,12.50
2008,05,04,10,09,12.60
2008,05,04,10,10,12.60
2008,05,04,10,11,12.70
2008,05,04,10,12,12.90
2008,05,04,10,13,13.00
2008,05,04,10,14,13.00
2008,05,04,10,15,13.00
2008,05,04,10,16,13.00
2008,05,04,10,17,13.00
2008,05,04,10,18,13.00
2008,05,04,10,19,13.00
2008,05,04,10,20,12.90
2008,05,04,10,21,12.90
2008,05,04,10,22,12.90
2008,05,04,10,23,13.00
2008,05,04,10,24,13.00
2008,05,04,10,25,13.00
2008,05,04,10,26,13.00
2008,05,04,10,27,13.00
2008,05,04,10,28,12.90
2008,05,04,10,29,13.00
2008,05,04,10,30,13.10
2008,05,04,10,31,13.10
2008,05,04,10,32,13.10
2008,05,04,10,33,13.20
2008,05,04,10,34,13.20
2008,05,04,10,35,13.30
2008,05,04,10,36,13.30
2008,05,04,10,37,13.30
2008,05,04,10,38,13.30
2008,05,04,10,39,13.20
2008,05,04,10,40,13.20
2008,05,04,10,41,13.20
2008,05,04,10,42,13.20
2008,05,04,10,43,13.20
2008,05,04,10,44,13.30
2008,05,04,10,45,13.30
2008,05,04,10,46,13.40
2008,05,04,10,47,13.50
2008,05,04,10,48,13.60
2008,05,04,10,49,13.60
2008,05,04,10,50,13.70
2008,05,04,10,51,13.80
2008,05,04,10,52,13.80
2008,05,04,10,53,13.80
2008,05,04,10,54,13.70
2008,05,04,10,55,13.70
2008,05,04,10,56,13.60
2008,05,04,10,57,13.60
2008,05,04,10,58,13.60
2008,05,04,10,59,13.60
2008,05,04,11,00,13.50
2008,05,04,11,01,13.50
2008,05,04,11,02,13.50
2008,05,04,11,03,13.50
2008,05,04,11,04,13.50
2008,05,04,11,05,13.60
2008,05,04,11,06,13.60
2008,05,04,11,07,13.70
2008,05,04,11,08,13.70
2008,05,04,11,09,13.80
2008,05,04,11,10,13.80
2008,05,04,11,11,13.90
2008,05,04,11,12,14.00
2008,05,04,11,13,14.00
2008,05,04,11,14,14.10
2008,05,04,11,15,14.20
2008,05,04,11,16,14.20
2008,05,04,11,17,14.30
2008,05,04,11,18,14.40
2008,05,04,11,19,14.50
2008,05,04,11,20,14.50
2008,05,04,11,21,14.40
2008,05,04,11,22,14.30
2008,05,04,11,23,14.30
2008,05,04,11,24,14.30
2008,05,04,11,25,14.20
2008,05,04,11,26,14.20
2008,05,04,11,27,14.20
2008,05,04,11,28,14.20
2008,05,04,11,29,14.20
2008,05,04,11,30,14.10
2008,05,04,11,31,14.10
2008,05,04,11,32,14.20
2008,05,04,11,33,14.20
2008,05,04,11,34,14.10
2008,05,04,11,35,14.20
2008,05,04,11,36,14.20
2008,05,04,11,37,14.20
2008,05,04,11,38,14.20
2008,05,04,11,39,14.20
2008,05,04,11,40,14.20
2008,05,04,11,41,14.10
2008,05,04,11,42,14.10
2008,05,04,11,43,14.10
2008,05,04,11,44,14.20
2008,05,04,11,45,14.30
2008,05,04,11,46,14.40
2008,05,04,11,47,14.60
2008,05,04,11,48,14.70
2008,05,04,11,49,14.90
2008,05,04,11,50,15.00
2008,05,04,11,51,15.00
2008,05,04,11,52,15.00
2008,05,04,11,53,15.10
2008,05,04,11,54,15.10
2008,05,04,11,55,15.20
2008,05,04,11,56,15.30
2008,05,04,11,57,15.30
2008,05,04,11,58,15.20
2008,05,04,11,59,15.10
2008,05,04,12,00,15.00
2008,05,04,12,01,14.90
2008,05,04,12,02,14.90
2008,05,04,12,03,14.90
2008,05,04,12,04,14.80
2008,05,04,12,05,14.80
2008,05,04,12,06,14.90
2008,05,04,12,07,14.90
2008,05,04,12,08,14.90
2008,05,04,12,09,14.90
2008,05,04,12,10,14.80
2008,05,04,12,11,14.80
2008,05,04,12,12,14.70
2008,05,04,12,13,14.50
2008,05,04,12,14,14.40
2008,05,04,12,15,14.30
2008,05,04,12,16,14.30
2008,05,04,12,17,14.20
2008,05,04,12,18,14.20
2008,05,04,12,19,14.20
2008,05,04,12,20,14.20
2008,05,04,12,21,14.20
2008,05,04,12,22,14.30
2008,05,04,12,23,14.30
2008,05,04,12,24,14.20
2008,05,04,12,25,14.20
2008,05,04,12,26,14.20
2008,05,04,12,27,14.10
2008,05,04,12,28,14.10
2008,05,04,12,29,14.20
2008,05,04,12,30,14.20
2008,05,04,12,31,14.20
2008,05,04,12,32,14.20
2008,05,04,12,33,14.20
2008,05,04,12,34,14.20
2008,05,04,12,35,14.20
2008,05,04,12,36,14.20
2008,05,04,12,37,14.40
2008,05,04,12,38,14.40
2008,05,04,12,39,14.50
2008,05,04,12,40,14.60
2008,05,04,12,41,14.70
2008,05,04,12,42,14.70
2008,05,04,12,43,14.50
2008,05,04,12,44,14.40
2008,05,04,12,45,14.20
2008,05,04,12,46,14.10
2008,05,04,12,47,14.10
2008,05,04,12,48,14.00
2008,05,04,12,49,14.00
2008,05,04,12,50,14.10
2008,05,04,12,51,14.20
2008,05,04,12,52,14.20
2008,05,04,12,53,14.20
2008,05,04,12,54,14.20
2008,05,04,12,55,14.20
2008,05,04,12,56,14.40
2008,05,04,12,57,14.50
2008,05,04,12,58,14.60
2008,05,04,12,59,14.70
2008,05,04,13,00,14.80
2008,05,04,13,01,14.90
2008,05,04,13,02,15.00
2008,05,04,13,03,15.00
2008,05,04,13,04,15.00
2008,05,04,13,05,15.00
2008,05,04,13,06,14.90
2008,05,04,13,07,14.80
2008,05,04,13,08,14.70
2008,05,04,13,09,14.60
2008,05,04,13,10,14.40
2008,05,04,13,11,14.30
2008,05,04,13,12,14.30
2008,05,04,13,13,14.30
2008,05,04,13,14,14.40
2008,05,04,13,15,14.40
2008,05,04,13,16,14.40
2008,05,04,13,17,14.50
2008,05,04,13,18,14.40
2008,05,04,13,19,14.40
2008,05,04,13,20,14.50
2008,05,04,13,21,14.60
2008,05,04,13,22,14.50
2008,05,04,13,23,14.50
2008,05,04,13,24,14.50
2008,05,04,13,25,14.60
2008,05,04,13,26,14.50
2008,05,04,13,27,14.50
2008,05,04,13,28,14.40
2008,05,04,13,29,14.40
2008,05,04,13,30,14.40
2008,05,04,13,31,14.40
2008,05,04,13,32,14.30
2008,05,04,13,33,14.40
2008,05,04,13,34,14.40
2008,05,04,13,35,14.40
2008,05,04,13,36,14.30
2008,05,04,13,37,14.20
2008,05,04,13,38,14.20
2008,05,04,13,39,14.10
2008,05,04,13,40,14.20
2008,05,04,13,41,14.20
2008,05,04,13,42,14.20
2008,05,04,13,43,14.20
2008,05,04,13,44,14.20
2008,05,04,13,45,14.20
2008,05,04,13,46,14.30
2008,05,04,13,47,14.30
2008,05,04,13,48,14.10
2008,05,04,13,49,14.00
2008,05,04,13,50,13.90
2008,05,04,13,51,13.80
2008,05,04,13,52,13.80
2008,05,04,13,53,13.80
2008,05,04,13,54,13.80
2008,05,04,13,55,13.70
2008,05,04,13,56,13.70
2008,05,04,13,57,13.60
2008,05,04,13,58,13.60
2008,05,04,13,59,13.60
2008,05,04,14,00,13.60
2008,05,04,14,01,13.70
2008,05,04,14,02,13.80
2008,05,04,14,03,13.80
2008,05,04,14,04,13.80
2008,05,04,14,05,13.90
2008,05,04,14,06,13.90
2008,05,04,14,07,13.80
2008,05,04,14,08,13.70
2008,05,04,14,09,13.70
2008,05,04,14,10,13.70
2008,05,04,14,11,13.60
2008,05,04,14,12,13.60
2008,05,04,14,13,13.70
2008,05,04,14,14,13.80
2008,05,04,14,15,13.90
2008,05,04,14,16,13.90
2008,05,04,14,17,13.90
2008,05,04,14,18,13.90
2008,05,04,14,19,13.90
2008,05,04,14,20,13.80
2008,05,04,14,21,13.90
2008,05,04,14,22,13.90
2008,05,04,14,23,14.00
2008,05,04,14,24,14.10
2008,05,04,14,25,14.20
2008,05,04,14,26,14.30
2008,05,04,14,27,14.30
2008,05,04,14,28,14.30
2008,05,04,14,29,14.30
2008,05,04,14,30,14.20
2008,05,04,14,31,14.20
2008,05,04,14,32,14.10
2008,05,04,14,33,14.10
2008,05,04,14,34,14.10
2008,05,04,14,35,14.10
2008,05,04,14,36,14.10
2008,05,04,14,37,14.10
2008,05,04,14,38,14.00
2008,05,04,14,39,14.00
2008,05,04,14,40,14.00
2008,05,04,14,41,14.10
2008,05,04,14,42,14.00
2008,05,04,14,43,13.90
2008,05,04,14,44,13.70
2008,05,04,14,45,13.70
2008,05,04,14,46,13.70
2008,05,04,14,47,13.80
2008,05,04,14,48,13.90
2008,05,04,14,49,13.90
2008,05,04,14,50,14.00
2008,05,04,14,51,14.00
2008,05,04,14,52,14.10
2008,05,04,14,53,14.10
2008,05,04,14,54,14.20
2008,05,04,14,55,14.20
2008,05,04,14,56,14.20
2008,05,04,14,57,14.30
2008,05,04,14,58,14.40
2008,05,04,14,59,14.40
2008,05,04,15,00,14.30
2008,05,04,15,01,14.20
2008,05,04,15,02,14.20
2008,05,04,15,03,14.30
2008,05,04,15,04,14.30
2008,05,04,15,05,14.30
2008,05,04,15,06,14.20
2008,05,04,15,07,14.20
2008,05,04,15,08,14.10
2008,05,04,15,09,14.20
2008,05,04,15,10,14.20
2008,05,04,15,11,14.20
2008,05,04,15,12,14.10
2008,05,04,15,13,14.10
2008,05,04,15,14,14.20
2008,05,04,15,15,14.20
2008,05,04,15,16,14.20
2008,05,04,15,17,14.20
2008,05,04,15,18,14.20
2008,05,04,15,19,14.20
2008,05,04,15,20,14.20
2008,05,04,15,21,14.20
2008,05,04,15,22,14.20
2008,05,04,15,23,14.20
2008,05,04,15,24,14.20
2008,05,04,15,25,14.20
2008,05,04,15,26,14.30
2008,05,04,15,27,14.30
2008,05,04,15,28,14.40
2008,05,04,15,29,14.30
2008,05,04,15,30,14.30
2008,05,04,15,31,14.30
2008,05,04,15,32,14.40
2008,05,04,15,33,14.50
2008,05,04,15,34,14.50
2008,05,04,15,35,14.60
2008,05,04,15,36,14.60
2008,05,04,15,37,14.60
2008,05,04,15,38,14.50
2008,05,04,15,39,14.40
2008,05,04,15,40,14.40
2008,05,04,15,41,14.40
2008,05,04,15,42,14.50
2008,05,04,15,43,14.60
2008,05,04,15,44,14.70
2008,05,04,15,45,14.70
2008,05,04,15,46,14.70
2008,05,04,15,47,14.70
2008,05,04,15,48,14.80
2008,05,04,15,49,14.80
2008,05,04,15,50,14.80
2008,05,04,15,51,14.70
2008,05,04,15,52,14.70
2008,05,04,15,53,14.70
2008,05,04,15,54,14.70
2008,05,04,15,55,14.80
2008,05,04,15,56,14.80
2008,05,04,15,57,14.80
2008,05,04,15,58,14.70
2008,05,04,15,59,14.70
2008,05,04,16,00,14.60
2008,05,04,16,01,14.70
2008,05,04,16,02,14.70
2008,05,04,16,03,14.50
2008,05,04,16,04,14.60
2008,05,04,16,05,14.60
2008,05,04,16,06,14.60
2008,05,04,16,07,14.60
2008,05,04,16,08,14.60
2008,05,04,16,09,14.60
2008,05,04,16,10,14.60
2008,05,04,16,11,14.60
2008,05,04,16,12,14.60
2008,05,04,16,13,14.70
2008,05,04,16,14,14.70
2008,05,04,16,15,14.60
2008,05,04,16,16,14.60
2008,05,04,16,17,14.50
2008,05,04,16,18,14.50
2008,05,04,16,19,14.50
2008,05,04,16,20,14.40
2008,05,04,16,21,14.40
2008,05,04,16,22,14.40
2008,05,04,16,23,14.40
2008,05,04,16,24,14.50
2008,05,04,16,25,14.50
2008,05,04,16,26,14.50
2008,05,04,16,27,14.50
2008,05,04,16,28,14.40
2008,05,04,16,29,14.40
2008,05,04,16,30,14.40
2008,05,04,16,31,14.40
2008,05,04,16,32,14.40
2008,05,04,16,33,14.40
2008,05,04,16,34,14.40
2008,05,04,16,35,14.50
2008,05,04,16,36,14.40
2008,05,04,16,37,14.40
2008,05,04,16,38,14.30
2008,05,04,16,39,14.20
2008,05,04,16,40,14.20
2008,05,04,16,41,14.20
2008,05,04,16,42,14.10
2008,05,04,16,43,14.10
2008,05,04,16,44,14.00
2008,05,04,16,45,14.00
2008,05,04,16,46,14.00
2008,05,04,16,47,13.90
2008,05,04,16,48,13.90
2008,05,04,16,49,13.90
2008,05,04,16,50,13.80
2008,05,04,16,51,13.70
2008,05,04,16,52,13.70
2008,05,04,16,53,13.70
2008,05,04,16,54,13.70
2008,05,04,16,55,13.70
2008,05,04,16,56,13.70
2008,05,04,16,57,13.70
2008,05,04,16,58,13.70
2008,05,04,16,59,13.70
2008,05,04,17,00,13.70
2008,05,04,17,01,13.70
2008,05,04,17,02,13.70
2008,05,04,17,03,13.70
2008,05,04,17,04,13.70
2008,05,04,17,05,13.70
2008,05,04,17,06,13.70
2008,05,04,17,07,13.70
2008,05,04,17,08,13.70
2008,05,04,17,09,13.70
2008,05,04,17,10,13.60
2008,05,04,17,11,13.60
2008,05,04,17,12,13.60
2008,05,04,17,13,13.50
2008,05,04,17,14,13.50
2008,05,04,17,15,13.50
2008,05,04,17,16,13.50
2008,05,04,17,17,13.50
2008,05,04,17,18,13.60
2008,05,04,17,19,13.60
2008,05,04,17,20,13.60
2008,05,04,17,21,13.60
2008,05,04,17,22,13.60
2008,05,04,17,23,13.70
2008,05,04,17,24,13.70
2008,05,04,17,25,13.60
2008,05,04,17,26,13.60
2008,05,04,17,27,13.60
2008,05,04,17,28,13.60
2008,05,04,17,29,13.60
2008,05,04,17,30,13.50
2008,05,04,17,31,13.50
2008,05,04,17,32,13.40
2008,05,04,17,33,13.50
2008,05,04,17,34,13.50
2008,05,04,17,35,13.50
2008,05,04,17,36,13.60
2008,05,04,17,37,13.60
2008,05,04,17,38,13.60
2008,05,04,17,39,13.60
2008,05,04,17,40,13.60
2008,05,04,17,41,13.60
2008,05,04,17,42,13.60